Tracking 18823 objects as of 24-October-2017
HD Live streaming from Space Station
objects crossing your sky now

AENEAS

Track AENEAS now!
10-day predictions
AENEAS is classified as:


NORAD ID: 38760
Int'l Code: 2012-048C
Perigee: 487.9 km
Apogee: 637.3 km
Inclination: 64.7 °
Period: 95.8 minutes
Semi major axis: 6933 km
RCS: Unknown
Launch date: September 13, 2012
Source: United States (US)
Launch site: AIR FORCE WESTERN TEST RANGE (AFWTR)
Uplink (MHz):
Downlink (MHz): 437.600
Beacon (MHz): 437.600
Mode: 1200bps AFSK
Call sign: KE6YFA-1
Status: Active

aabbcc
Your satellite tracking list
Your tracking list is empty





NASA's NSSDC Master Catalog

Two Line Element Set (TLE):
1 38760U 12048C   17296.09628059 +.00001576 +00000-0 +11374-3 0 01151
2 38760 064.6621 321.2006 0107716 064.2591 296.9616 15.03717815019001
Source of the keplerian elements: Caltech